This is the latest recevied weather packets stored in our database for station/object K4KMJ. If no packets are shown the sender has not sent any weather packets the latest 10 day(s).
| Time | Temp. | Humidity | Pressure | Rain* | Wind** | Luminosity | Snow |
|---|---|---|---|---|---|---|---|
| 1777827606 | 23.89° C | 73% | 1020 hPa | 0 mm | - | 1083 W/m² | - |
| 1777827303 | 23.89° C | 73% | 1020.3 hPa | 0 mm | - | 1131 W/m² | - |
| 1777826994 | 23.33° C | 73% | 1020.3 hPa | 0 mm | - | 1047 W/m² | - |
| 1777826691 | 23.89° C | 74% | 1020.3 hPa | 0 mm | - | 1087 W/m² | - |
| 1777826387 | 23.89° C | 74% | 1020.4 hPa | 0 mm | - | 998 W/m² | - |
| 1777826084 | 23.33° C | 75% | 1020.5 hPa | 0 mm | - | 338 W/m² | - |
| 1777825775 | 23.33° C | 75% | 1020.3 hPa | 0 mm | - | 1029 W/m² | - |
| 1777825473 | 23.89° C | 76% | 1020.6 hPa | 0 mm | - | 996 W/m² | - |
| 1777825170 | 22.78° C | 77% | 1020.5 hPa | 0 mm | - | 891 W/m² | - |
| 1777824867 | 22.78° C | 77% | 1020.4 hPa | 0 mm | - | 462 W/m² | - |
| 1777824563 | 22.78° C | 78% | 1020.4 hPa | 0 mm | - | 357 W/m² | - |
| 1777824260 | 22.78° C | 79% | 1020.5 hPa | 0 mm | - | 332 W/m² | - |
| 1777823955 | 22.22° C | 79% | 1020.4 hPa | 0 mm | - | 394 W/m² | - |
| 1777823653 | 22.78° C | 80% | 1020.5 hPa | 0 mm | - | 345 W/m² | - |
| 1777823350 | 22.22° C | 81% | 1020.6 hPa | 0 mm | - | 354 W/m² | - |
| 1777823047 | 22.22° C | 81% | 1020.5 hPa | 0 mm | - | 389 W/m² | - |
| 1777822745 | 21.67° C | 82% | 1020.6 hPa | 0 mm | - | 386 W/m² | - |
| 1777822443 | 21.11° C | 83% | 1020.6 hPa | 0 mm | - | 238 W/m² | - |
| 1777822140 | 21.67° C | 84% | 1020.4 hPa | 0 mm | - | 284 W/m² | - |
| 1777821837 | 21.11° C | 85% | 1020.4 hPa | 0 mm | - | 266 W/m² | - |
| 1777821534 | 21.67° C | 86% | 1020.4 hPa | 0 mm | - | 237 W/m² | - |
| 1777821233 | 21.11° C | 87% | 1020.2 hPa | 0 mm | - | 303 W/m² | - |
| 1777820929 | 21.67° C | 88% | 1020.3 hPa | 0 mm | - | 425 W/m² | - |
| 1777820625 | 21.11° C | 89% | 1020.2 hPa | 0 mm | - | 432 W/m² | - |
| 1777820322 | 21.11° C | 90% | 1020.1 hPa | 0 mm | - | 347 W/m² | - |
* Rain latest hour (hover to see other rain measurements)
** Current wind speed in m/s (hover to see current wind gust speed)